Hourly Weather Mansa Konko

Today, 1 October, Thursday

Time Temperature Precipitation Wind Pressure Humidity
00:00 +28°C° 0 mm 2 mps 757 mmHg 86%
01:00 +28°C° 0 mm 2 mps 757 mmHg 87%
02:00 +28°C° 0 mm 2 mps 756 mmHg 87%
03:00 +27°C° 0 mm 2 mps 756 mmHg 88%
04:00 +27°C° 0 mm 2 mps 756 mmHg 89%
05:00 +27°C° 0 mm 2 mps 756 mmHg 92%
06:00 +28°C° 0 mm 3 mps 757 mmHg 88%
07:00 +29°C° 0 mm 3 mps 757 mmHg 84%
08:00 +30°C° 0 mm 4 mps 758 mmHg 80%
09:00 +31°C° 0 mm 3 mps 757 mmHg 72%
10:00 +34°C° 0 mm 3 mps 757 mmHg 65%
11:00 +35°C° 0 mm 3 mps 757 mmHg 58%
12:00 +36°C° 0 mm 3 mps 756 mmHg 55%
13:00 +37°C° 0 mm 3 mps 755 mmHg 52%
14:00 +37°C° 0 mm 2 mps 755 mmHg 49%
15:00 +36°C° 0 mm 3 mps 755 mmHg 56%
16:00 +35°C° 0 mm 3 mps 754 mmHg 63%
17:00 +34°C° 0 mm 3 mps 754 mmHg 70%
18:00 +31°C° 0 mm 3 mps 755 mmHg 74%
19:00 +30°C° 0 mm 3 mps 755 mmHg 78%
20:00 +29°C° 0 mm 3 mps 756 mmHg 83%
21:00 +28°C° 0 mm 3 mps 756 mmHg 85%
22:00 +28°C° 0 mm 3 mps 756 mmHg 87%
23:00 +28°C° 0 mm 3 mps 757 mmHg 89%

Tomorrow, 2 October, Friday

Time Temperature Precipitation Wind Pressure Humidity
00:00 +28°C° 0 mm 3 mps 756 mmHg 89%
01:00 +27°C° 0 mm 3 mps 756 mmHg 90%
02:00 +27°C° 0 mm 3 mps 755 mmHg 91%
03:00 +27°C° 0 mm 3 mps 755 mmHg 92%
04:00 +27°C° 0 mm 3 mps 755 mmHg 93%
05:00 +27°C° 0 mm 3 mps 755 mmHg 94%
06:00 +28°C° 0 mm 3 mps 755 mmHg 91%
07:00 +29°C° 0 mm 4 mps 756 mmHg 87%
08:00 +30°C° 0 mm 4 mps 756 mmHg 84%
09:00 +32°C° 0 mm 4 mps 756 mmHg 79%
10:00 +33°C° 0 mm 4 mps 756 mmHg 73%
11:00 +34°C° 0 mm 4 mps 755 mmHg 68%
12:00 +35°C° 0 mm 3 mps 755 mmHg 63%
13:00 +36°C° 0 mm 3 mps 754 mmHg 59%
14:00 +37°C° 0 mm 2 mps 754 mmHg 54%
15:00 +36°C° 0 mm 2 mps 754 mmHg 59%
16:00 +35°C° 0 mm 2 mps 753 mmHg 64%
17:00 +35°C° 0 mm 3 mps 753 mmHg 69%
18:00 +33°C° 0 mm 3 mps 754 mmHg 74%
19:00 +31°C° 0 mm 3 mps 755 mmHg 79%
20:00 +29°C° 0 mm 3 mps 755 mmHg 83%
21:00 +29°C° 0 mm 3 mps 755 mmHg 85%
22:00 +28°C° 0 mm 3 mps 755 mmHg 87%
23:00 +28°C° 0 mm 4 mps 755 mmHg 88%

Day after tomorrow, 3 October, Saturday

Time Temperature Precipitation Wind Pressure Humidity
00:00 +27°C° 0 mm 3 mps 755 mmHg 90%
01:00 +27°C° 0 mm 3 mps 755 mmHg 92%
02:00 +27°C° 0 mm 3 mps 755 mmHg 93%
03:00 +27°C° 0 mm 3 mps 755 mmHg 94%
04:00 +26°C° 0 mm 3 mps 755 mmHg 95%
05:00 +26°C° 0 mm 2 mps 755 mmHg 97%
06:00 +27°C° 0 mm 3 mps 755 mmHg 93%
07:00 +28°C° 0 mm 3 mps 755 mmHg 89%
08:00 +30°C° 0 mm 3 mps 756 mmHg 85%
09:00 +31°C° 0 mm 3 mps 756 mmHg 75%
10:00 +34°C° 0 mm 2 mps 755 mmHg 66%
11:00 +35°C° 0 mm 2 mps 755 mmHg 57%
12:00 +35°C° 0 mm 1 mps 755 mmHg 52%
13:00 +36°C° 0 mm 1 mps 754 mmHg 48%
14:00 +37°C° 0 mm 1 mps 753 mmHg 44%
15:00 +36°C° 0 mm 1 mps 753 mmHg 47%
16:00 +35°C° 0 mm 1 mps 753 mmHg 51%
17:00 +35°C° 0 mm 1 mps 753 mmHg 54%
18:00 +33°C° 0 mm 1 mps 754 mmHg 60%
19:00 +31°C° 0 mm 2 mps 754 mmHg 67%
20:00 +29°C° 0 mm 2 mps 755 mmHg 73%
21:00 +29°C° 0 mm 2 mps 755 mmHg 77%
22:00 +29°C° 0 mm 2 mps 755 mmHg 81%
23:00 +28°C° 0 mm 2 mps 756 mmHg 85%

4 October, Sunday

Time Temperature Precipitation Wind Pressure Humidity
00:00 +28°C° 0 mm 2 mps 755 mmHg 87%
01:00 +27°C° 0 mm 2 mps 755 mmHg 89%
02:00 +27°C° 0 mm 2 mps 755 mmHg 91%
03:00 +27°C° 0 mm 2 mps 755 mmHg 92%
04:00 +27°C° 0 mm 2 mps 755 mmHg 92%
05:00 +26°C° 0 mm 2 mps 755 mmHg 93%
06:00 +27°C° 0.2 mm 1 mps 755 mmHg 88%
07:00 +28°C° 0.2 mm 1 mps 756 mmHg 84%
08:00 +29°C° 0.2 mm 1 mps 756 mmHg 79%
09:00 +31°C° 0 mm 1 mps 756 mmHg 72%
10:00 +32°C° 0 mm 2 mps 756 mmHg 65%
11:00 +35°C° 0 mm 2 mps 756 mmHg 59%
12:00 +35°C° 0.2 mm 2 mps 756 mmHg 58%
13:00 +35°C° 0.2 mm 2 mps 755 mmHg 57%
14:00 +36°C° 0.2 mm 2 mps 755 mmHg 56%
15:00 +34°C° 1 mm 2 mps 755 mmHg 63%
16:00 +32°C° 1 mm 2 mps 755 mmHg 70%
17:00 +31°C° 1 mm 2 mps 755 mmHg 77%
18:00 +30°C° 0.5 mm 2 mps 756 mmHg 82%
19:00 +29°C° 0.5 mm 3 mps 756 mmHg 86%
20:00 +28°C° 0.5 mm 3 mps 757 mmHg 90%
21:00 +27°C° 0.3 mm 2 mps 757 mmHg 91%
22:00 +27°C° 0.3 mm 2 mps 758 mmHg 92%
23:00 +27°C° 0.3 mm 2 mps 758 mmHg 93%

5 October, Monday

Time Temperature Precipitation Wind Pressure Humidity
00:00 +27°C° 0.6 mm 2 mps 758 mmHg 93%
01:00 +26°C° 0.6 mm 1 mps 757 mmHg 93%
02:00 +26°C° 0.6 mm 1 mps 757 mmHg 94%
03:00 +26°C° 0.1 mm 1 mps 757 mmHg 94%
04:00 +26°C° 0.1 mm 1 mps 757 mmHg 94%
05:00 +24°C° 0.1 mm 0 mps 757 mmHg 95%
06:00 +27°C° 0.2 mm 1 mps 758 mmHg 92%
07:00 +27°C° 0.2 mm 1 mps 758 mmHg 89%
08:00 +28°C° 0.2 mm 1 mps 758 mmHg 87%
09:00 +30°C° 0 mm 1 mps 758 mmHg 80%
10:00 +31°C° 0 mm 1 mps 758 mmHg 73%
11:00 +33°C° 0 mm 1 mps 758 mmHg 66%
12:00 +33°C° 2.6 mm 1 mps 758 mmHg 68%
13:00 +32°C° 2.6 mm 1 mps 757 mmHg 70%
14:00 +32°C° 2.6 mm 1 mps 756 mmHg 73%
15:00 +31°C° 3.2 mm 1 mps 757 mmHg 78%
16:00 +29°C° 3.2 mm 1 mps 757 mmHg 82%
17:00 +28°C° 3.2 mm 1 mps 757 mmHg 87%
18:00 +27°C° 2.1 mm 2 mps 758 mmHg 90%
19:00 +27°C° 2.1 mm 2 mps 758 mmHg 93%
20:00 +26°C° 2.1 mm 3 mps 759 mmHg 96%
21:00 +26°C° 0.5 mm 2 mps 759 mmHg 96%
22:00 +26°C° 0.5 mm 2 mps 759 mmHg 96%
23:00 +26°C° 0.5 mm 1 mps 760 mmHg 96%

6 October, Tuesday

Time Temperature Precipitation Wind Pressure Humidity
00:00 +26°C° 0.1 mm 1 mps 759 mmHg 96%
01:00 +26°C° 0.1 mm 1 mps 759 mmHg 96%
02:00 +26°C° 0.1 mm 1 mps 758 mmHg 95%
03:00 +26°C° 0 mm 1 mps 758 mmHg 95%
04:00 +25°C° 0 mm 1 mps 758 mmHg 94%
05:00 +25°C° 0 mm 1 mps 758 mmHg 94%
06:00 +26°C° 0 mm 1 mps 758 mmHg 90%
07:00 +27°C° 0 mm 1 mps 759 mmHg 87%
08:00 +27°C° 0 mm 1 mps 759 mmHg 84%
09:00 +29°C° 0 mm 1 mps 759 mmHg 78%
10:00 +30°C° 0 mm 1 mps 759 mmHg 72%
11:00 +32°C° 0 mm 1 mps 759 mmHg 66%
12:00 +32°C° 0 mm 1 mps 758 mmHg 64%
13:00 +33°C° 0 mm 1 mps 758 mmHg 62%
14:00 +33°C° 0 mm 1 mps 757 mmHg 60%
15:00 +33°C° 0 mm 1 mps 757 mmHg 63%
16:00 +32°C° 0 mm 1 mps 757 mmHg 67%
17:00 +31°C° 0 mm 1 mps 757 mmHg 71%
18:00 +30°C° 0 mm 1 mps 758 mmHg 73%
19:00 +29°C° 0 mm 1 mps 758 mmHg 75%
20:00 +28°C° 0 mm 1 mps 758 mmHg 78%
21:00 +28°C° 0.1 mm 1 mps 759 mmHg 80%
22:00 +28°C° 0.1 mm 1 mps 759 mmHg 81%
23:00 +27°C° 0.1 mm 2 mps 759 mmHg 83%
Show more